Location: ?????????
(53.2086°N, 54.0693°E)
Time: 07:09:46
(UTC+00:00)

SeaSat 1 - Pass Details

Date: 08 December 2019
Orbit: 744 x 748 km, 108.0° (Epoch: 27 January)

Event Time Altitude Azimuth Distance (km) Brightness Sun altitude
Exits shadow 13:28:47 15° 61° (ENE) 1,924 3.9 -11.4°
Maximum altitude 13:30:46 19° 32° (NNE) 1,720 3.9 -11.7°
Drops below altitude 10° 13:34:12 10° 347° (NNW) 2,274 4.9 -12.1°
Sets 13:37:02 0° 331° (NNW) 3,202 5.8 -12.5°
